Regional Weather Roundup
Issued by NWS

Home | Current Version | Previous Version | Text Only | Print | Product List | Glossary Off
Versions: 1 2 3 4 5 6 7 8 9 10 11 12 13 14 15 16 17 18 19 20 21 22 23 24 25 26 27 28 29 30 31 32 33 34 35 36 37 38 39 40 41 42 43 44 45 46 47 48 49 50

553
ASUS43 KFSD 251910
RWRSD

WEATHER ROUNDUP FOR SOUTH DAKOTA
NATIONAL WEATHER SERVICE SIOUX FALLS SD
100 PM CST SUN FEB 25 2018

NOTE: "FAIR" INDICATES FEW OR NO CLOUDS BELOW 12,000 FEET WITH NO
SIGNIFICANT WEATHER AND/OR OBSTRUCTIONS TO VISIBILITY.


SDZ001>005-009-010-012>017-252000-
NORTHWEST AND NORTH CENTRAL SOUTH DAKOTA

CITY           SKY/WX    TMP DP  RH WIND       PRES   REMARKS
BUFFALO          N/A     26  16  65 W22       29.64F WCI  12
FAITH            N/A     27  18  69 W14       29.76R WCI  16
MOBRIDGE       SUNNY     27  16  63 W13       29.74S WCI  16
$$

SDZ012>016-024>037-041>051-057-063-072>074-252000-
SOUTHWEST AND SOUTH CENTRAL SOUTH DAKOTA

CITY           SKY/WX    TMP DP  RH WIND       PRES   REMARKS
RAPID CTY ARPT MOSUNNY   26  18  71 E10       29.78S WCI  16
PIERRE         SUNNY     27  15  61 W12       29.83S WCI  17
CUSTER         SUNNY     24   7  48 W10G22    29.72S WCI  14
ELLSWORTH AFB  MOSUNNY   35  15  45 N10       29.75F WCI  27
PHILIP         SUNNY     29  18  63 SW15      29.83S WCI  18
PINE RIDGE     SUNNY    N/A N/A N/A MISG      29.86S
SPEARFISH        N/A     32   9  37 W20G26    29.74S WCI  20
WINNER         FAIR      32  18  56 SW10      29.87F WCI  24
$$

SDZ004>011-016>023-039-040-252000-
NORTHEAST SOUTH DAKOTA

CITY           SKY/WX    TMP DP  RH WIND       PRES   REMARKS
ABERDEEN       SUNNY     28  18  66 W13       29.78R WCI  17
WATERTOWN      SUNNY     24  18  77 W17       29.75R WCI  11
BROOKINGS      SUNNY     27  18  69 W10       29.82R WCI  17
SISSETON         N/A     27  19  72 W23       29.71R WCI  12
$$

SDZ017-020-022-023-036>040-048>070-252000-
SOUTHEAST SOUTH DAKOTA

CITY           SKY/WX    TMP DP  RH WIND       PRES   REMARKS
SIOUX FALLS    MOSUNNY   28  18  66 W10G21    29.88R WCI  19
HURON          SUNNY     30  21  69 SW7       29.85R WCI  23
CHAMBERLAIN    SUNNY     32  20  61 SW12      29.87S WCI  23
MITCHELL       MOSUNNY   29  19  66 SW15      29.89R WCI  18
YANKTON        SUNNY     34  18  52 W14       29.91F WCI  25
$$

ABBREVIATIONS USED IN REMARKS
   TC - TEMPERATURE IN CELSIUS
  WCI - WIND CHILL INDEX
   HX - HEAT INDEX
  VSB - VISIBILITY





USA.gov is the U.S. government's official web portal to all federal, state and local government web resources and services.